Location: Peebles
(55.6412°N, 3.1714°W)
Time: 06:24:43
(UTC+01:00)

deb Agena D - Pass Details

Date: 10 July 2022
Orbit: 797 x 980 km, 99.8° (Epoch: 16 August)

Event Time Altitude Azimuth Distance (km) Brightness Sun altitude
Rises 00:02:26 0° 16° (NNE) 3,413 10.4 -10.4°
Reaches altitude 10° 00:04:53 10° 8° (N) 2,499 9.8 -10.6°
Maximum altitude 00:09:57 38° 302° (WNW) 1,324 7.7 -10.8°
Drops below altitude 10° 00:15:13 10° 237° (WSW) 2,598 8.6 -11.0°
Sets 00:17:49 0° 230° (SW) 3,565 9.2 -11.0°
